Location: ?????????
(53.2086°N, 54.0693°E)
Time: 21:57:51
(UTC+00:00)

Cosmos 2237 Rocket - Pass Details

Date: 08 December 2019
Orbit: 836 x 849 km, 71.0° (Epoch: 28 January)

Event Time Altitude Azimuth Distance (km) Brightness Sun altitude
Rises 16:22:20 0° 249° (WSW) 3,409 6.1 -36.8°
Reaches altitude 10° 16:25:06 10° 260° (W) 2,476 5.3 -37.2°
Enters shadow 16:29:13 29° 305° (NW) 1,523 3.9 -37.9°
